TimeCDT,TemperatureF,Dew PointF,Humidity,Sea Level PressureIn,VisibilityMPH,Wind Direction,Wind SpeedMPH,Gust SpeedMPH,PrecipitationIn,Events,Conditions,WindDirDegrees,DateUTC
12:53 AM,41.0,37.9,89,30.27,5.0,WSW,6.9,-,N/A,,Overcast,240,2014-03-09 06:53:00
1:53 AM,41.0,37.9,89,30.27,6.0,WSW,5.8,-,N/A,,Overcast,250,2014-03-09 07:53:00
3:53 AM,41.0,37.9,89,30.27,6.0,WSW,8.1,-,N/A,,Overcast,250,2014-03-09 08:53:00
4:04 AM,41.0,37.4,87,30.27,6.0,WSW,8.1,-,N/A,,Overcast,250,2014-03-09 09:04:00
4:53 AM,41.0,37.9,89,30.28,5.0,WSW,5.8,-,N/A,,Overcast,250,2014-03-09 09:53:00
5:53 AM,42.1,39.0,89,30.30,5.0,West,4.6,-,N/A,,Overcast,270,2014-03-09 10:53:00
6:53 AM,41.0,39.0,93,30.31,4.0,WSW,3.5,-,N/A,,Overcast,250,2014-03-09 11:53:00
7:13 AM,41.0,39.2,93,30.31,3.0,SW,4.6,-,N/A,,Overcast,230,2014-03-09 12:13:00
7:31 AM,41.0,39.2,93,30.32,3.0,SW,4.6,-,N/A,,Overcast,230,2014-03-09 12:31:00
7:53 AM,41.0,39.0,93,30.33,3.0,WSW,4.6,-,N/A,,Overcast,240,2014-03-09 12:53:00
8:05 AM,41.0,39.2,93,30.33,2.0,SW,5.8,-,N/A,,Overcast,220,2014-03-09 13:05:00
8:53 AM,42.1,39.9,92,30.33,2.0,West,3.5,-,N/A,,Overcast,270,2014-03-09 13:53:00
9:53 AM,43.0,39.0,86,30.34,2.0,Calm,Calm,-,N/A,,Overcast,0,2014-03-09 14:53:00
10:53 AM,44.1,39.9,85,30.34,4.0,Calm,Calm,-,N/A,,Overcast,0,2014-03-09 15:53:00
11:53 AM,46.0,41.0,83,30.34,4.0,Calm,Calm,-,N/A,,Haze,0,2014-03-09 16:53:00
12:53 PM,48.0,42.1,80,30.33,5.0,Calm,Calm,-,N/A,,Haze,0,2014-03-09 17:53:00
1:53 PM,50.0,41.0,71,30.30,6.0,SSW,4.6,-,N/A,,Haze,200,2014-03-09 18:53:00
2:01 PM,50.0,42.8,76,30.28,6.0,Variable,3.5,-,N/A,,Haze,0,2014-03-09 19:01:00
2:53 PM,52.0,42.1,69,30.26,6.0,Calm,Calm,-,N/A,,Haze,0,2014-03-09 19:53:00
3:53 PM,52.0,42.1,69,30.24,7.0,Calm,Calm,-,N/A,,Overcast,0,2014-03-09 20:53:00
4:53 PM,52.0,42.1,69,30.22,7.0,Variable,3.5,-,N/A,,Overcast,0,2014-03-09 21:53:00
5:53 PM,53.1,43.0,69,30.19,8.0,SW,4.6,-,N/A,,Overcast,220,2014-03-09 22:53:00
6:53 PM,52.0,43.0,71,30.20,8.0,WSW,4.6,-,N/A,,Overcast,240,2014-03-09 23:53:00
7:53 PM,51.1,43.0,74,30.19,10.0,WSW,5.8,-,N/A,,Overcast,240,2014-03-10 00:53:00
8:15 PM,48.2,42.8,82,30.19,9.0,West,4.6,-,N/A,,Scattered Clouds,270,2014-03-10 01:15:00
8:53 PM,48.0,43.0,83,30.19,8.0,Calm,Calm,-,N/A,,Clear,0,2014-03-10 01:53:00
9:53 PM,44.1,39.0,82,30.20,6.0,Calm,Calm,-,N/A,,Haze,0,2014-03-10 02:53:00
10:33 PM,42.8,39.2,87,30.19,2.0,Calm,Calm,-,N/A,,Clear,0,2014-03-10 03:33:00
10:42 PM,42.8,39.2,87,30.18,4.0,Calm,Calm,-,N/A,,Clear,0,2014-03-10 03:42:00
10:53 PM,43.0,39.9,89,30.19,4.0,Calm,Calm,-,N/A,,Clear,0,2014-03-10 03:53:00
11:53 PM,41.0,37.9,89,30.17,5.0,Calm,Calm,-,N/A,,Clear,0,2014-03-10 04:53:00
12:53 AM,37.9,36.0,93,30.17,4.0,Calm,Calm,-,N/A,,Clear,0,2014-03-10 05:53:00
12:58 AM,37.4,35.6,93,30.16,2.0,Calm,Calm,-,N/A,,Partly Cloudy,0,2014-03-10 05:58:00